EN

Hourly Weather Labunschina

Today, 23 July, Friday

Time Temperature Precipitation Wind Pressure Humidity
00:00 +13°C° 0 mm 3 mps 737 mmHg 78%
01:00 +13°C° 0 mm 3 mps 737 mmHg 77%
02:00 +13°C° 0 mm 3 mps 737 mmHg 77%
03:00 +14°C° 0 mm 3 mps 737 mmHg 78%
04:00 +14°C° 0 mm 3 mps 736 mmHg 79%
05:00 +16°C° 0 mm 3 mps 736 mmHg 80%
06:00 +17°C° 0 mm 3 mps 736 mmHg 77%
07:00 +18°C° 0 mm 4 mps 736 mmHg 75%
08:00 +19°C° 0 mm 4 mps 737 mmHg 71%
09:00 +20°C° 0 mm 4 mps 736 mmHg 65%
10:00 +21°C° 0 mm 5 mps 736 mmHg 59%
11:00 +22°C° 0 mm 5 mps 736 mmHg 52%
12:00 +23°C° 0 mm 5 mps 736 mmHg 51%
13:00 +23°C° 0 mm 5 mps 736 mmHg 49%
14:00 +25°C° 0 mm 5 mps 736 mmHg 47%
15:00 +25°C° 0 mm 5 mps 736 mmHg 49%
16:00 +25°C° 0 mm 5 mps 735 mmHg 52%
17:00 +23°C° 0 mm 4 mps 735 mmHg 54%
18:00 +22°C° 0 mm 4 mps 735 mmHg 59%
19:00 +21°C° 0 mm 3 mps 735 mmHg 65%
20:00 +19°C° 0 mm 3 mps 735 mmHg 70%
21:00 +19°C° 0 mm 3 mps 736 mmHg 73%
22:00 +18°C° 0 mm 3 mps 736 mmHg 76%
23:00 +18°C° 0 mm 3 mps 736 mmHg 79%

Tomorrow, 24 July, Saturday

Time Temperature Precipitation Wind Pressure Humidity
00:00 +17°C° 0 mm 3 mps 736 mmHg 82%
01:00 +17°C° 0 mm 3 mps 736 mmHg 85%
02:00 +16°C° 0 mm 2 mps 736 mmHg 88%
03:00 +16°C° 0 mm 2 mps 736 mmHg 88%
04:00 +16°C° 0 mm 2 mps 736 mmHg 87%
05:00 +16°C° 0 mm 2 mps 736 mmHg 86%
06:00 +16°C° 0 mm 2 mps 737 mmHg 82%
07:00 +17°C° 0 mm 2 mps 737 mmHg 77%
08:00 +18°C° 0 mm 2 mps 737 mmHg 73%
09:00 +19°C° 0.1 mm 2 mps 737 mmHg 68%
10:00 +21°C° 0.1 mm 2 mps 737 mmHg 63%
11:00 +23°C° 0.1 mm 2 mps 737 mmHg 59%
12:00 +24°C° 0.2 mm 2 mps 737 mmHg 57%
13:00 +24°C° 0.2 mm 2 mps 737 mmHg 55%
14:00 +25°C° 0.2 mm 2 mps 737 mmHg 53%
15:00 +25°C° 0.2 mm 1 mps 737 mmHg 54%
16:00 +25°C° 0.2 mm 1 mps 737 mmHg 55%
17:00 +25°C° 0.2 mm 1 mps 738 mmHg 56%
18:00 +23°C° 0.2 mm 1 mps 738 mmHg 61%
19:00 +22°C° 0.2 mm 1 mps 738 mmHg 66%
20:00 +20°C° 0.2 mm 1 mps 738 mmHg 71%
21:00 +18°C° 0 mm 0 mps 738 mmHg 73%
22:00 +17°C° 0 mm 0 mps 738 mmHg 75%
23:00 +16°C° 0 mm 0 mps 738 mmHg 76%

Day after tomorrow, 25 July, Sunday

Time Temperature Precipitation Wind Pressure Humidity
00:00 +16°C° 0 mm 0 mps 738 mmHg 76%
01:00 +18°C° 0 mm 1 mps 739 mmHg 76%
02:00 +18°C° 0 mm 1 mps 739 mmHg 76%
03:00 +19°C° 0 mm 1 mps 739 mmHg 76%
04:00 +19°C° 0 mm 1 mps 739 mmHg 77%
05:00 +19°C° 0 mm 1 mps 739 mmHg 77%
06:00 +19°C° 0 mm 1 mps 739 mmHg 76%
07:00 +20°C° 0 mm 1 mps 740 mmHg 76%
08:00 +20°C° 0 mm 1 mps 740 mmHg 76%
09:00 +22°C° 0.3 mm 1 mps 740 mmHg 71%
10:00 +23°C° 0.3 mm 1 mps 740 mmHg 67%
11:00 +24°C° 0.3 mm 1 mps 740 mmHg 63%
12:00 +24°C° 0.8 mm 1 mps 740 mmHg 60%
13:00 +25°C° 0.8 mm 2 mps 740 mmHg 57%
14:00 +26°C° 0.8 mm 2 mps 741 mmHg 54%
15:00 +26°C° 0.1 mm 2 mps 740 mmHg 56%
16:00 +25°C° 0.1 mm 2 mps 740 mmHg 57%
17:00 +25°C° 0.1 mm 2 mps 740 mmHg 59%
18:00 +23°C° 0.1 mm 1 mps 740 mmHg 65%
19:00 +22°C° 0.1 mm 1 mps 740 mmHg 71%
20:00 +20°C° 0.1 mm 1 mps 741 mmHg 77%
21:00 +20°C° 0 mm 1 mps 741 mmHg 78%
22:00 +18°C° 0 mm 2 mps 741 mmHg 78%
23:00 +18°C° 0 mm 2 mps 741 mmHg 79%

26 July, Monday

Time Temperature Precipitation Wind Pressure Humidity
00:00 +17°C° 0 mm 2 mps 741 mmHg 81%
01:00 +17°C° 0 mm 2 mps 741 mmHg 82%
02:00 +16°C° 0 mm 2 mps 741 mmHg 84%
03:00 +16°C° 0 mm 2 mps 741 mmHg 85%
04:00 +16°C° 0 mm 2 mps 741 mmHg 85%
05:00 +16°C° 0 mm 2 mps 741 mmHg 86%
06:00 +17°C° 0 mm 2 mps 742 mmHg 80%
07:00 +19°C° 0 mm 2 mps 742 mmHg 75%
08:00 +21°C° 0 mm 3 mps 742 mmHg 69%
09:00 +24°C° 0 mm 3 mps 742 mmHg 63%
10:00 +25°C° 0 mm 3 mps 742 mmHg 57%
11:00 +27°C° 0 mm 4 mps 742 mmHg 51%
12:00 +27°C° 0 mm 3 mps 742 mmHg 51%
13:00 +27°C° 0 mm 3 mps 742 mmHg 51%
14:00 +27°C° 0 mm 3 mps 741 mmHg 51%
15:00 +26°C° 0 mm 3 mps 741 mmHg 54%
16:00 +26°C° 0 mm 3 mps 741 mmHg 56%
17:00 +25°C° 0 mm 3 mps 741 mmHg 58%
18:00 +24°C° 0 mm 3 mps 741 mmHg 62%
19:00 +22°C° 0 mm 3 mps 741 mmHg 65%
20:00 +21°C° 0 mm 3 mps 740 mmHg 68%
21:00 +20°C° 0 mm 3 mps 740 mmHg 68%
22:00 +20°C° 0 mm 3 mps 740 mmHg 67%
23:00 +19°C° 0 mm 3 mps 740 mmHg 67%

27 July, Tuesday

Time Temperature Precipitation Wind Pressure Humidity
00:00 +19°C° 0 mm 3 mps 740 mmHg 70%
01:00 +18°C° 0 mm 3 mps 740 mmHg 73%
02:00 +17°C° 0 mm 3 mps 740 mmHg 76%
03:00 +17°C° 0 mm 3 mps 740 mmHg 75%
04:00 +18°C° 0 mm 3 mps 740 mmHg 74%
05:00 +18°C° 0 mm 3 mps 740 mmHg 73%
06:00 +19°C° 0 mm 4 mps 740 mmHg 72%
07:00 +20°C° 0 mm 4 mps 740 mmHg 71%
08:00 +21°C° 0 mm 5 mps 740 mmHg 69%
09:00 +21°C° 0 mm 5 mps 739 mmHg 66%
10:00 +22°C° 0 mm 5 mps 739 mmHg 63%
11:00 +23°C° 0 mm 6 mps 739 mmHg 59%
12:00 +23°C° 0 mm 6 mps 739 mmHg 63%
13:00 +22°C° 0 mm 6 mps 739 mmHg 66%
14:00 +22°C° 0 mm 6 mps 739 mmHg 70%
15:00 +21°C° 0.3 mm 6 mps 738 mmHg 75%
16:00 +20°C° 0.3 mm 6 mps 738 mmHg 81%
17:00 +19°C° 0.3 mm 6 mps 738 mmHg 87%
18:00 +19°C° 0.1 mm 6 mps 737 mmHg 86%
19:00 +19°C° 0.1 mm 5 mps 737 mmHg 86%
20:00 +19°C° 0.1 mm 5 mps 736 mmHg 86%
21:00 +19°C° 0.3 mm 5 mps 736 mmHg 89%
22:00 +19°C° 0.3 mm 5 mps 736 mmHg 92%
23:00 +19°C° 0.3 mm 5 mps 736 mmHg 96%

28 July, Wednesday

Time Temperature Precipitation Wind Pressure Humidity
00:00 +18°C° 0.8 mm 4 mps 735 mmHg 96%
01:00 +18°C° 0.8 mm 4 mps 735 mmHg 97%
02:00 +18°C° 0.8 mm 4 mps 734 mmHg 98%
03:00 +18°C° 3.6 mm 3 mps 734 mmHg 98%
04:00 +18°C° 3.6 mm 3 mps 734 mmHg 98%
05:00 +18°C° 3.6 mm 2 mps 734 mmHg 98%
06:00 +18°C° 0.5 mm 3 mps 734 mmHg 98%
07:00 +19°C° 0.5 mm 3 mps 734 mmHg 97%
08:00 +19°C° 0.5 mm 3 mps 734 mmHg 96%
09:00 +20°C° 0.1 mm 4 mps 735 mmHg 89%
10:00 +22°C° 0.1 mm 5 mps 735 mmHg 82%
11:00 +23°C° 0.1 mm 5 mps 735 mmHg 74%
12:00 +25°C° 0 mm 5 mps 735 mmHg 68%
13:00 +27°C° 0 mm 5 mps 736 mmHg 62%
14:00 +28°C° 0 mm 5 mps 736 mmHg 57%
15:00 +27°C° 0.1 mm 5 mps 736 mmHg 59%
16:00 +27°C° 0.1 mm 4 mps 736 mmHg 62%
17:00 +27°C° 0.1 mm 4 mps 736 mmHg 65%
18:00 +25°C° 0.1 mm 3 mps 736 mmHg 72%
19:00 +22°C° 0.1 mm 3 mps 736 mmHg 78%
20:00 +20°C° 0.1 mm 3 mps 736 mmHg 85%
21:00 +20°C° 0 mm 2 mps 736 mmHg 86%
22:00 +19°C° 0 mm 2 mps 736 mmHg 87%
23:00 +18°C° 0 mm 2 mps 737 mmHg 88%
Show more